K5KVN Weather Reports


time (UTC)temp
F
wind
direction
speed
knots
gust
knots
rain 1hr
in
rain 24hr
in
rain mn
in
humidity
%
barometer
mb
20260510094603 62 179 0.0 0.0 0.00 0.01 0.00 87 1014.7
20260510093502 62 179 0.0 0.0 0.00 0.01 0.00 86 1014.5
20260510093457 62 179 0.0 0.0 0.00 0.01 0.00 86 1014.2
20260510092600 62 179 0.0 0.0 0.00 0.01 0.00 86 1014.2
20260510091455 62 179 0.0 0.0 0.00 0.01 0.00 85 1013.7
20260510090455 62 179 0.0 0.9 0.00 0.01 0.00 85 1013.6
20260510085452 62 211 0.0 0.9 0.00 0.01 0.00 86 1013.7
20260510084452 61 333 0.0 0.0 0.00 0.01 0.00 87 1014.0
20260510083450 61 333 0.0 0.0 0.00 0.01 0.00 87 1013.9
20260510082451 60 333 0.0 0.0 0.00 0.01 0.00 89 1013.6
20260510081459 59 337 0.0 0.0 0.00 0.01 0.00 92 1014.2
20260510081448 59 337 0.0 0.0 0.00 0.01 0.00 91 1013.9
20260510080554 59 337 0.0 0.0 0.00 0.01 0.00 92 1014.2
20260510075448 59 337 0.0 0.0 0.00 0.01 0.00 91 1014.0
20260510074447 59 337 0.0 0.0 0.00 0.01 0.00 91 1013.8
20260510073447 59 337 0.0 0.0 0.00 0.01 0.00 90 1014.0
20260510072445 59 337 0.0 0.0 0.00 0.01 0.00 90 1013.5
20260510071446 59 337 0.0 0.0 0.00 0.01 0.00 89 1013.7
20260510070446 59 337 0.0 0.0 0.00 0.01 0.00 89 1014.1
20260510065457 59 337 0.0 0.0 0.00 0.01 0.00 89 1014.7
20260510065445 59 337 0.0 0.0 0.00 0.01 0.00 88 1014.3
20260510064447 59 337 0.0 0.0 0.00 0.01 0.00 89 1014.4
20260510063551 59 337 0.0 0.0 0.00 0.01 0.00 89 1014.7
20260510062457 59 337 0.0 0.0 0.00 0.01 0.00 88 1014.8
20260510062447 59 337 0.0 0.0 0.00 0.01 0.00 89 1014.8
20260510061446 59 337 0.0 0.0 0.00 0.01 0.00 89 1015.0
20260510060552 59 337 0.0 0.0 0.00 0.01 0.00 88 1014.8
20260510055552 59 337 0.0 0.0 0.00 0.01 0.00 88 1014.7
20260510054458 59 337 0.0 0.0 0.00 0.01 0.00 88 1014.5
20260510054448 59 337 0.0 0.0 0.00 0.01 0.00 89 1014.6
20260510053551 59 337 0.0 0.0 0.00 0.01 0.00 88 1014.5
20260510052445 59 337 0.0 0.0 0.00 0.01 0.00 88 1014.4
20260510051446 59 337 0.0 0.0 0.00 0.01 0.00 87 1014.3
20260510050445 59 337 0.0 0.0 0.00 0.01 0.00 86 1014.2
20260510045607 59 337 0.0 0.0 0.00 0.01 0.01 86 1013.9
20260510045453 59 337 0.0 0.0 0.00 0.01 0.01 86 1013.9
20260510045443 59 337 0.0 0.0 0.00 0.01 0.01 85 1014.3
20260510044549 59 337 0.0 0.0 0.00 0.01 0.01 86 1013.9
20260510043549 59 337 0.0 0.0 0.00 0.01 0.01 86 1013.9
20260510042446 60 337 0.0 0.0 0.00 0.01 0.01 83 1013.9
20260510041445 60 337 0.0 0.0 0.00 0.01 0.01 84 1013.8
20260510041440 60 337 0.0 0.0 0.00 0.01 0.01 83 1013.9
20260510040546 60 337 0.0 0.0 0.00 0.01 0.01 84 1013.8
20260510035543 60 337 0.0 0.0 0.00 0.01 0.01 83 1013.9
20260510034438 60 337 0.0 0.0 0.00 0.01 0.01 82 1013.6
20260510033439 60 337 0.0 0.0 0.00 0.01 0.01 82 1013.4
20260510032439 61 337 0.0 0.0 0.00 0.01 0.01 83 1013.3
20260510031438 61 337 0.0 0.0 0.00 0.01 0.01 82 1013.0
20260510030436 62 337 0.0 0.0 0.00 0.01 0.01 82 1012.8
20260510025448 62 337 0.0 0.0 0.00 0.01 0.01 82 1012.7
20260510025437 62 337 0.0 0.0 0.00 0.01 0.01 80 1012.8
20260510024541 62 337 0.0 0.0 0.00 0.01 0.01 82 1012.7
20260510023436 62 337 0.0 0.0 0.00 0.01 0.01 78 1012.6
20260510022437 63 337 0.0 0.0 0.00 0.01 0.01 79 1012.4
20260510021436 63 337 0.0 0.0 0.00 0.01 0.01 76 1012.2
20260510020437 64 337 0.0 0.0 0.00 0.01 0.01 71 1011.9
20260510015437 65 337 0.0 0.0 0.00 0.01 0.01 72 1011.5
20260510014436 66 337 0.0 0.0 0.00 0.01 0.01 66 1011.3
20260510013435 67 337 0.0 0.0 0.00 0.02 0.01 67 1011.1
20260510012436 68 337 0.0 0.0 0.00 0.05 0.01 69 1011.1
20260510011434 70 337 0.0 0.0 0.00 0.07 0.01 66 1010.9
20260510010436 71 337 0.0 0.0 0.00 0.09 0.01 64 1010.8
20260510005434 72 138 0.0 0.0 0.00 0.10 0.01 57 1010.8
20260510004433 73 138 0.0 0.0 0.00 0.10 0.01 52 1010.6
20260510003434 74 138 0.0 0.0 0.00 0.10 0.01 52 1010.6
20260510002431 75 138 0.0 0.0 0.00 0.10 0.01 53 1010.6
20260510001432 75 232 0.0 0.0 0.00 0.10 0.01 55 1010.6
20260510000434 76 321 0.0 0.0 0.00 0.10 0.01 55 1010.7
20260509235430 77 333 0.0 0.9 0.00 0.10 0.01 53 1010.8
20260509234429 78 180 0.0 0.0 0.00 0.10 0.01 48 1010.8
20260509233429 78 198 0.0 3.5 0.00 0.10 0.01 51 1010.9
20260509232430 78 169 0.0 1.7 0.00 0.10 0.01 50 1010.9
20260509231429 78 170 0.0 0.9 0.00 0.10 0.01 47 1011.0
20260509230427 79 8 0.0 2.6 0.00 0.10 0.01 46 1011.1
20260509225436 79 338 0.0 0.9 0.00 0.10 0.01 43 1010.9
20260509225427 79 1 0.0 0.9 0.00 0.10 0.01 43 1010.9
20260509224532 79 338 0.0 0.9 0.00 0.10 0.01 43 1010.9
20260509223437 80 176 0.0 2.6 0.00 0.10 0.01 38 1011.0
20260509223427 80 176 0.0 1.7 0.00 0.10 0.01 47 1011.0
20260509222532 80 176 0.0 2.6 0.00 0.10 0.01 38 1011.0
20260509221427 81 170 0.0 2.6 0.00 0.10 0.01 39 1011.0
20260509220427 81 195 0.9 3.5 0.00 0.10 0.01 39 1011.0
20260509215427 81 180 0.9 4.3 0.00 0.10 0.01 44 1011.0
20260509214427 82 168 0.0 2.6 0.00 0.10 0.01 45 1011.0
20260509213427 82 218 0.9 3.5 0.00 0.10 0.01 36 1011.0
20260509212429 81 0 0.0 0.9 0.00 0.10 0.01 37 1011.1
20260509211427 81 197 0.0 2.6 0.00 0.10 0.01 38 1011.3
20260509210427 81 197 0.0 1.7 0.00 0.10 0.01 42 1011.4
20260509205426 82 197 0.0 0.9 0.00 0.10 0.01 41 1011.5
20260509204437 82 198 0.9 2.6 0.00 0.10 0.01 39 1011.7
20260509204426 82 197 0.0 2.6 0.00 0.10 0.01 41 1011.6
20260509203530 82 198 0.9 2.6 0.00 0.10 0.01 39 1011.7
20260509202426 82 188 0.9 4.3 0.00 0.10 0.01 40 1011.7
20260509201422 82 290 0.9 1.7 0.00 0.10 0.01 43 1011.9
20260509200426 82 293 0.0 2.6 0.00 0.10 0.01 42 1012.0
20260509195434 81 347 1.7 4.3 0.00 0.10 0.01 43 1012.2
20260509195424 81 299 0.0 0.9 0.00 0.10 0.01 42 1012.0
20260509194548 81 334 0.9 4.3 0.00 0.10 0.01 44 1012.2
20260509194530 81 347 1.7 4.3 0.00 0.10 0.01 43 1012.2
20260509192421 81 319 0.9 5.2 0.00 0.10 0.01 49 1012.2
20260509191420 81 2 0.0 0.9 0.00 0.10 0.01 38 1012.2
20260509190421 80 186 0.9 4.3 0.00 0.10 0.01 40 1012.3
20260509185420 80 342 0.0 0.0 0.00 0.10 0.01 45 1012.3
20260509184422 80 340 0.0 0.9 0.00 0.10 0.01 42 1012.5
20260509183430 80 249 0.9 3.5 0.00 0.10 0.01 36 1012.5
20260509183420 80 165 0.9 1.7 0.00 0.10 0.01 40 1012.6
20260509182526 80 249 0.9 3.5 0.00 0.10 0.01 36 1012.5
20260509181422 79 160 0.0 0.9 0.00 0.10 0.01 39 1012.5
20260509180420 79 160 0.0 2.6 0.00 0.10 0.01 45 1012.6
20260509175432 78 202 0.9 3.5 0.00 0.10 0.01 54 1012.7
20260509175421 78 161 0.9 4.3 0.00 0.10 0.01 48 1012.6
20260509174526 78 202 0.9 3.5 0.00 0.10 0.01 54 1012.7
20260509173421 78 205 0.9 4.3 0.00 0.10 0.01 53 1012.8
20260509172432 77 236 0.9 2.6 0.00 0.10 0.01 59 1012.9
20260509172421 78 259 0.0 2.6 0.00 0.10 0.01 61 1012.9
20260509171526 77 236 0.9 2.6 0.00 0.10 0.01 59 1012.9
20260509170421 76 238 0.9 2.6 0.00 0.10 0.01 62 1012.8
20260509165430 75 127 0.9 3.5 0.00 0.10 0.01 66 1012.7
20260509165421 76 207 0.9 3.5 0.00 0.10 0.01 66 1012.8
20260509164524 75 127 0.9 3.5 0.00 0.10 0.01 66 1012.7
20260509163418 75 229 0.9 3.5 0.00 0.10 0.01 69 1012.8
20260509162420 74 230 0.9 3.5 0.00 0.10 0.01 69 1013.0
20260509161418 74 151 1.7 6.1 0.00 0.10 0.01 69 1013.0
20260509160420 74 193 0.0 2.6 0.00 0.10 0.01 74 1013.1
20260509155418 73 226 0.9 3.5 0.00 0.10 0.01 74 1013.0
20260509154420 73 229 0.9 3.5 0.00 0.10 0.01 74 1013.0
20260509153428 70 209 0.9 3.5 0.00 0.10 0.01 80 1013.0
20260509153418 72 217 0.0 2.6 0.00 0.10 0.01 82 1012.8
20260509152524 70 209 0.9 3.5 0.00 0.10 0.01 80 1013.0
20260509151416 70 162 0.9 3.5 0.00 0.10 0.01 81 1013.0
20260509150417 69 220 0.0 0.9 0.00 0.10 0.01 83 1013.0
20260509145418 67 318 0.0 2.6 0.00 0.10 0.01 85 1012.9
20260509144416 66 205 0.0 0.0 0.00 0.10 0.01 89 1012.8
20260509143414 64 215 0.9 2.6 0.00 0.10 0.01 91 1012.9
20260509142413 63 207 0.9 3.5 0.00 0.10 0.01 94 1012.8
20260509141413 62 180 0.9 2.6 0.00 0.10 0.01 96 1012.8
20260509140412 61 180 0.9 2.6 0.00 0.10 0.01 97 1012.7
20260509135412 60 181 0.0 1.7 0.00 0.10 0.01 97 1012.7
20260509134411 59 181 0.0 2.6 0.00 0.10 0.01 97 1012.6
20260509133411 58 181 0.0 0.9 0.00 0.10 0.01 97 1012.5
20260509132409 57 181 0.0 1.7 0.00 0.10 0.01 97 1012.5
20260509131419 55 73 0.0 0.0 0.00 0.10 0.01 97 1012.4
20260509131409 56 73 0.0 0.0 0.00 0.10 0.01 97 1012.3
20260509130514 55 73 0.0 0.0 0.00 0.10 0.01 97 1012.4
20260509125409 54 73 0.0 0.9 0.00 0.10 0.01 97 1012.2
20260509124410 52 319 0.0 0.0 0.00 0.10 0.01 97 1012.2
20260509123406 51 319 0.0 0.0 0.00 0.10 0.01 97 1012.3
20260509122408 51 319 0.0 0.0 0.00 0.10 0.01 96 1012.2
20260509121408 50 319 0.0 0.0 0.00 0.10 0.01 96 1011.8
20260509120408 50 319 0.0 0.0 0.00 0.10 0.01 96 1011.7
20260509115407 50 319 0.0 0.0 0.01 0.10 0.01 96 1011.6
20260509114405 50 319 0.0 0.0 0.01 0.10 0.01 96 1011.6
20260509113403 50 319 0.0 0.0 0.01 0.10 0.01 96 1011.7
20260509112405 50 319 0.0 0.0 0.01 0.10 0.01 96 1011.6
20260509111403 50 311 0.0 0.0 0.01 0.10 0.01 96 1011.5
20260509110404 50 311 0.0 0.0 0.01 0.10 0.01 96 1011.4
20260509105404 50 311 0.0 0.0 0.00 0.09 0.00 96 1011.4
20260509104415 50 311 0.0 0.0 0.00 0.09 0.00 96 1011.2
20260509104405 50 311 0.0 0.0 0.00 0.09 0.00 96 1011.3
20260509103507 50 311 0.0 0.0 0.00 0.09 0.00 96 1011.2
20260509102413 51 311 0.0 0.0 0.00 0.09 0.00 96 1011.0
20260509102403 51 311 0.0 0.0 0.00 0.09 0.00 96 1011.1
20260509101506 51 311 0.0 0.0 0.00 0.09 0.00 96 1011.0
20260509100410 51 311 0.0 0.0 0.00 0.09 0.00 96 1011.2
20260509100400 51 311 0.0 0.0 0.00 0.09 0.00 96 1011.0
20260509095508 51 311 0.0 0.0 0.00 0.09 0.00 96 1011.2
20260509095358 51 311 0.0 0.0 0.00 0.09 0.00 96 1011.2